This website is under construction - Deze website is in opbouw - Ce site est en construction - Diese Website ist im Aufbau.
Please return later. Schauen Sie bitte später nochmals an.  S'il vous plaît revenir plus tard.  Komt u straks nog eens terug
Het weer levert geen direct gevaar op.    Er zijn geen waarschuwingen afgegeven.


webcam Wortegem (ovl-BE) more information webcam Wortegem (ovl-BE)


Onweer radar more information blitzortung!


Regen radar more information rain snow radar


Bezoek onze andere website:

Template documentation
and downloads

And another site



15 daagse weersverwachting Wortegem-Petegem (BE)

  • Overzicht
  • Per uur
  • 15 dagen
  • Extra
  • Vergelijk
  • Kaarten
  • Dagkaart
  • Meer »
  • Info
  • Statistieken
  • Directe link
    Temp 6h Neerslag Wind  
 05:36     22:03    Daglengte: 16:27 Vandaag
14:00
22°
 
2
20:00
20°
 
5
 05:36     22:03    Daglengte: 16:27 Morgen
02:00
15°
 
4
08:00
15°
 
4
14:00
18°
 
4
20:00
18°
1.2 mm
4
warningclass
 05:37     22:03    Daglengte: 16:26 Woensdag 28 Jun
02:00
17°
 
2
08:00
16°
 
5
14:00
20°
 
6
20:00
18°
1.1 mm
4
 05:37     22:03    Daglengte: 16:26 Donderdag 29 Jun
02:00
15°
 
3
Locatie info
Region: Flandern
Latitude: 50.8520°N
Longitude: 3.5104°E
0 masl
Postcode: 9790
Temp/Neerslag /Baro Onweer/Dauwpunt
    Temp Baro 1h Neerslag Dauwpunt Wind UV Bewolking  
 05:36     22:03    Daglengte: 16:27 Vandaag
09:00
17°
1014.6 hPa   13.1°
2
Windvlaag: 1.1 m/s
17%
10:00
18°
1014.6 hPa   11.8°
3
Windvlaag: -3.8 m/s
9%
11:00
19°
1014.6 hPa   11.2°
3
Windvlaag: -4.5 m/s
18%
12:00
20°
1014.8 hPa   11.0°
2
Windvlaag: -4.5 m/s
28%
13:00
21°
1014.7 hPa   11.3°
2
Windvlaag: -4.2 m/s
22%
14:00
22°
1014.6 hPa   11.3°
2
Windvlaag: -3.9 m/s
31%
15:00
22°
1014.2 hPa   11.3°
3
Windvlaag: -4.2 m/s
44%
16:00
22°
1013.7 hPa   11.0°
3
Windvlaag: -4.6 m/s
40%
17:00
22°
1013.3 hPa   10.6°
4
Windvlaag: -4.7 m/s
17%
18:00
22°
1013.0 hPa   9.9°
4
Windvlaag: -5.1 m/s
24%
19:00
21°
1012.8 hPa   9.3°
5
Windvlaag: -4.9 m/s
34%
20:00
20°
1012.7 hPa
15%
8.9°
5
Windvlaag: -4.8 m/s
45%
21:00
19°
1012.5 hPa
20%
9.1°
5
Windvlaag: -4.3 m/s
63%
22:00
18°
1012.8 hPa
20%
8.9°
5
Windvlaag: -4.9 m/s
55%
23:00
17°
1013.0 hPa
18%
9.0°
4
Windvlaag: -4.9 m/s
48%
 05:36     22:03    Daglengte: 16:27 Morgen
00:00
16°
1012.9 hPa
18%
9.5°
4
Windvlaag: -4.7 m/s
57%
01:00
15°
1012.3 hPa
17%
9.8°
4
Windvlaag: -4.1 m/s
57%
02:00
15°
1011.8 hPa
14%
10.2°
4
Windvlaag: -3 m/s
66%
03:00
15°
1011.3 hPa   10.6°
4
Windvlaag: -2.5 m/s
69%
04:00
15°
1010.6 hPa   10.7°
4
Windvlaag: -2.4 m/s
83%
05:00
15°
1010.0 hPa   10.5°
4
Windvlaag: -1.2 m/s
85%
06:00
15°
1009.5 hPa   10.3°
4
Windvlaag: -1.3 m/s
86%
07:00
15°
1009.2 hPa   10.3°
4
Windvlaag: -1.3 m/s
86%
08:00
15°
1008.8 hPa
13%
11.0°
4
Windvlaag: -1.1 m/s
83%
09:00
16°
1008.5 hPa   12.5°
3
Windvlaag: -0.9 m/s
83%
10:00
17°
1008.3 hPa
27%
14.0°
3
Windvlaag: -0.4 m/s
84%
11:00
17°
1007.9 hPa
31%
15.3°
4
Windvlaag: 0.8 m/s
84%
12:00
17°
1007.5 hPa
80%
15.9°
3
Windvlaag: 0 m/s
86%
13:00
17°
1007.0 hPa
74%
16.1°
3
Windvlaag: 0.8 m/s
86%
14:00
18°
1006.1 hPa
78%
16.4°
4
Windvlaag: 0.3 m/s
84%
15:00
19°
1005.2 hPa
67%
15.5°
5
Windvlaag: -0.4 m/s
85%
16:00
20°
1004.4 hPa
33%
14.5°
5
Windvlaag: -0.6 m/s
80%
17:00
19°
1003.8 hPa 0.6 mm
33%
14.5°
4
Windvlaag: -0.5 m/s
85% warningclass
18:00
19°
1003.1 hPa
67%
14.8°
4
Windvlaag: -0.6 m/s
82%
19:00
19°
1002.6 hPa
26%
13.8°
4
Windvlaag: -0.8 m/s
86%
20:00
18°
1002.1 hPa 0.6 mm
37%
14.6°
4
Windvlaag: -0.5 m/s
86% warningclass
21:00
18°
1001.5 hPa
82%
15.4°
4
Windvlaag: -1.4 m/s
86%
22:00
17°
1001.0 hPa
82%
15.4°
3
Windvlaag: -2 m/s
86%
23:00
17°
1000.7 hPa
80%
15.7°
3
Windvlaag: -1.8 m/s
83%
 05:37     22:03    Daglengte: 16:26 Woensdag 28 Jun
00:00
17°
1000.2 hPa
30%
16.2°
3
Windvlaag: -1.9 m/s
82%
01:00
17°
1000.0 hPa
23%
16.0°
3
Windvlaag: -1.4 m/s
85%
02:00
17°
999.5 hPa
28%
15.9°
2
Windvlaag: -0.6 m/s
86%
03:00
17°
998.9 hPa
15%
15.8°
3
Windvlaag: 0.5 m/s
86%
04:00
17°
998.0 hPa   15.1°
3
Windvlaag: 0.8 m/s
86%
05:00
16°
998.1 hPa   15.6°
2
Windvlaag: 0.7 m/s
100%
06:00
16°
997.8 hPa
17%
15.6°
2
Windvlaag: 2.3 m/s
100%
07:00
16°
997.5 hPa   15.6°
4
Windvlaag: 5.5 m/s
100%
08:00
16°
997.4 hPa   15.4°
5
Windvlaag: 7.3 m/s
100%
09:00
17°
997.3 hPa   15.2°
6
Windvlaag: 8.9 m/s
97%
10:00
18°
997.2 hPa   16.0°
6
Windvlaag: 10.1 m/s
97%
11:00
18°
997.0 hPa   16.3°
7
Windvlaag: 9 m/s
92%
12:00
18°
997.1 hPa   16.3°
7
Windvlaag: 7 m/s
93%
13:00
19°
997.2 hPa
54%
16.0°
6
Windvlaag: 6.1 m/s
80%
14:00
20°
997.0 hPa
31%
16.6°
6
Windvlaag: 5.6 m/s
75%
15:00
20°
996.8 hPa
97%
16.4°
6
Windvlaag: 5 m/s
76%
16:00
20°
996.5 hPa
100%
16.7°
6
Windvlaag: 4.7 m/s
59%
17:00
20°
996.2 hPa 0.4 mm
97%
16.6°
5
Windvlaag: 4.6 m/s
63%
18:00
20°
995.9 hPa 0.4 mm
100%
16.3°
6
Windvlaag: 3.8 m/s
67%
19:00
19°
995.9 hPa 0.3 mm
90%
15.7°
5
Windvlaag: 3.5 m/s
61%
20:00
18°
996.1 hPa
29%
15.8°
4
Windvlaag: 3.4 m/s
74%
21:00
17°
996.3 hPa   15.5°
3
Windvlaag: 2.8 m/s
76%
22:00
16°
996.5 hPa
15%
15.4°
3
Windvlaag: 2.5 m/s
87%
23:00
16°
996.5 hPa
15%
14.8°
3
Windvlaag: 2.9 m/s
93%
 05:37     22:03    Daglengte: 16:26 Donderdag 29 Jun
00:00
16°
996.5 hPa
18%
14.1°
3
Windvlaag: 3.2 m/s
80%
01:00
15°
996.2 hPa   14.2°
3
Windvlaag: 2.8 m/s
77%
02:00
15°
995.9 hPa   14.4°
3
Windvlaag: 3.4 m/s
89%
03:00
15°
995.5 hPa   13.4°
4
Windvlaag: 5 m/s
98%
04:00
14°
995.2 hPa   13.0°
4
Windvlaag: 5.1 m/s
64%
05:00
14°
995.0 hPa   12.9°
4
Windvlaag: 5.9 m/s
88%
06:00
14°
995.1 hPa   13.0°
3
Windvlaag: 5.6 m/s
92%
07:00
14°
995.2 hPa   12.9°
4
Windvlaag: 5.9 m/s
89%
08:00
15°
995.5 hPa   13.2°
5
Windvlaag: 6.4 m/s
90%
Temp/Neerslag /Baro Onweer/Dauwpunt
    Temp Baro Neerslag Dauwpunt Wind Bewolking  
 05:36     22:03    Daglengte: 16:27 Vandaag
11:00
19°
1014.6 hPa   11.2°
3
18%
14:00
22°
1014.6 hPa   11.3°
2
31%
17:00
22°
1013.3 hPa   10.6°
4
17%
20:00
20°
1012.7 hPa   8.9°
5
45%
23:00
17°
1013.0 hPa   9.0°
4
48%
 05:36     22:03    Daglengte: 16:27 Morgen
02:00
15°
1011.8 hPa   10.2°
4
66%
05:00
15°
1010.0 hPa   10.5°
4
85%
08:00
15°
1008.8 hPa   11.0°
4
83%
11:00
17°
1007.9 hPa   15.3°
4
84%
14:00
18°
1006.1 hPa   16.4°
4
84%
17:00
19°
1003.8 hPa 0.6 mm 14.5°
4
85% warningclass
20:00
18°
1002.1 hPa 0.6 mm 14.6°
4
86% warningclass
23:00
17°
1000.7 hPa   15.7°
3
83%
 05:37     22:03    Daglengte: 16:26 Woensdag 28 Jun
02:00
17°
999.5 hPa   15.9°
2
86%
05:00
16°
998.1 hPa   15.6°
2
100%
08:00
16°
997.4 hPa   15.4°
5
100%
11:00
18°
997.0 hPa   16.3°
7
92%
14:00
20°
997.0 hPa   16.6°
6
75%
17:00
20°
996.2 hPa 0.4 mm 16.6°
5
63%
20:00
18°
996.1 hPa 0.7 mm 15.8°
4
74%
23:00
16°
996.5 hPa   14.8°
3
93%
 05:37     22:03    Daglengte: 16:26 Donderdag 29 Jun
02:00
15°
995.9 hPa   14.4°
3
89%
05:00
14°
995.0 hPa   12.9°
4
88%
08:00
15°
995.5 hPa   13.2°
5
90%
11:00
17°
998.6 hPa   14.3°
5
1%
14:00
18°
999.2 hPa 0.4 mm 13.9°
5
1%
17:00
19°
999.0 hPa 0.3 mm 12.9°
6
1%
20:00
19°
999.7 hPa 0.5 mm 14.0°
5
1%
23:00
14°
1001.4 hPa 0.1 mm 12.5°
3
0%
 05:38     22:03    Daglengte: 16:25 Vrijdag 30 Jun
02:00
12°
1002.0 hPa 0.1 mm 11.2°
3
0%
05:00
12°
1002.8 hPa   11.3°
4
0%
08:00
14°
1003.8 hPa   12.6°
5
0%
11:00
17°
1005.1 hPa 0.1 mm 13.3°
7
1%
14:00
20°
1005.5 hPa 0.7 mm 13.1°
6
1%
17:00
20°
1005.8 hPa 0.7 mm 13.8°
6
0%
20:00
18°
1006.2 hPa 1.7 mm 14.4°
4
1%
23:00
14°
1007.9 hPa   12.8°
3
0%
 05:39     22:02    Daglengte: 16:23 Zaterdag 01 Jul
02:00
12°
1008.6 hPa   11.5°
3
1%
05:00
11°
1009.4 hPa   11.0°
3
1%
08:00
15°
1010.9 hPa 0.1 mm 14.0°
3
1%
11:00
15°
1012.8 hPa 0.4 mm 13.6°
4
1%
14:00
15°
1014.3 hPa 0.7 mm 13.1°
4
1%
17:00
16°
1015.5 hPa 0.2 mm 12.7°
4
1%
20:00
18°
1016.0 hPa 0.4 mm 11.8°
3
1%
23:00
15°
1017.2 hPa   11.1°
5
1%
 05:39     22:02    Daglengte: 16:23 Zondag 02 Jul
02:00
12°
1016.6 hPa   11.6°
5
1%
05:00
13°
1014.9 hPa   12.1°
6
1%
08:00
14°
1013.4 hPa 0.5 mm 12.8°
7
1%
11:00
16°
1013.1 hPa 2.5 mm 15.0°
7
1%
14:00
19°
1012.5 hPa 2.9 mm 15.3°
8
1%
17:00
20°
1012.5 hPa 0.8 mm 14.6°
8
1%
20:00
17°
1014.6 hPa 1.8 mm 13.9°
6
1%
23:00
15°
1018.1 hPa   12.6°
3
0%
 05:40     22:02    Daglengte: 16:22 Maandag 03 Jul
02:00
14°
1019.6 hPa   11.8°
3
1%
05:00
11°
1020.6 hPa   9.8°
3
0%
08:00
15°
1022.3 hPa   11.6°
3
0%
14:00
19°
1023.2 hPa 0.5 mm 11.4°
2
1%
20:00
19°
1022.8 hPa 0.3 mm 11.3°
2
1%
 05:41     22:01    Daglengte: 16:20 Dinsdag 04 Jul
02:00
11°
1022.6 hPa   8.1°
2
0%
08:00
15°
1021.4 hPa   10.9°
2
0%
14:00
23°
1019.9 hPa   11.7°
3
0%
20:00
22°
1018.6 hPa   14.0°
2
1%
 05:42     22:01    Daglengte: 16:19 Woensdag 05 Jul
02:00
13°
1018.7 hPa 0.1 mm 10.7°
1
0%
08:00
16°
1018.5 hPa   12.5°
2
1%
14:00
25°
1017.0 hPa 0.2 mm 15.2°
4
0%
20:00
23°
1015.1 hPa 0.4 mm 12.8°
1
0%
 05:43     22:00    Daglengte: 16:17 Donderdag 06 Jul
02:00
16°
1015.0 hPa 0.8 mm 11.8°
1
0%
08:00
17°
1014.8 hPa 0.7 mm 12.6°
2
0%
14:00
23°
1015.0 hPa 0.3 mm 11.1°
3
0%
20:00
22°
1014.7 hPa 0.3 mm 12.3°
2
0%
 05:44     22:00    Daglengte: 16:16 Vrijdag 07 Jul
02:00
15°
1015.6 hPa 0.5 mm 11.4°
1
0%
08:00
16°
1015.2 hPa 0.3 mm 12.3°
2
0%
14:00
22°
1015.2 hPa 1.0 mm 12.5°
3
0%
20:00
22°
1014.7 hPa 1.3 mm 12.0°
3
0%
 05:44     21:59    Daglengte: 16:15 Zaterdag 08 Jul
02:00
15°
1015.2 hPa 0.5 mm 11.1°
2
0%
08:00
16°
1014.9 hPa 0.2 mm 11.9°
3
0%
14:00
22°
1014.6 hPa 1.0 mm 12.1°
4
0%
20:00
21°
1014.2 hPa 1.1 mm 12.9°
4
0%
 05:45     21:58    Daglengte: 16:13 Zondag 09 Jul
02:00
14°
1015.0 hPa 0.9 mm 11.7°
3
0%
08:00
15°
1015.6 hPa 0.2 mm 12.1°
4
0%
14:00
21°
1016.1 hPa 0.5 mm 11.7°
5
0%
20:00
20°
1016.3 hPa 0.7 mm 11.3°
4
0%
 05:46     21:57    Daglengte: 16:11 Maandag 10 Jul
02:00
14°
1017.9 hPa 0.3 mm 10.8°
2
0%
08:00
15°
1018.2 hPa 0.6 mm 11.4°
2
0%
14:00
21°
1018.4 hPa 0.6 mm 11.3°
3
0%
20:00
21°
1018.0 hPa 0.6 mm 11.4°
3
0%
 05:47     21:57    Daglengte: 16:10 Dinsdag 11 Jul
02:00
14°
1018.4 hPa 1.0 mm 10.8°
0
0%
08:00
15°
1017.7 hPa 0.4 mm 11.4°
1
0%
  CAPE Lifted Index Hail Supercell Tornado SRH 3km CL BTM PRES CL TOP PRES Swiss DWD icon SMHI TS
 05:36     22:03    Daglengte: 16:27 Vandaag
09:00 0 J/kg 4.1 K 0 % 0 % 0 % 183 m²/s² 0 0 3.98 0
10:00 0 J/kg 4.0 K 0 % 0 % 0 % 141 m²/s² 0 0 4.07 1
11:00 0 J/kg 3.9 K 0 % 0 % 0 % 115 m²/s² 0 0 4.41 2
12:00 0 J/kg 4.2 K 0 % 0 % 0 % 103 m²/s² 0 0 5.74 1
13:00 10 J/kg 3.6 K 0 % 0 % 0 % 108 m²/s² 0 0 5.2 2
14:00 0 J/kg 3.3 K 0 % 0 % 0 % 136 m²/s² 306 269 4.48 3
15:00 0 J/kg 3.6 K 0 % 0 % 0 % 160 m²/s² 322 306 4.89 3
16:00 0 J/kg 3.3 K 0 % 0 % 0 % 178 m²/s² 364 306 4.35 3
17:00 0 J/kg 2.9 K 0 % 0 % 0 % 188 m²/s² 0 0 3.47 3
18:00 0 J/kg 2.7 K 0 % 0 % 0 % 186 m²/s² 0 0 2.9 0
19:00 0 J/kg 2.3 K 0 % 0 % 0 % 183 m²/s² 0 0 2.17 3
20:00 0 J/kg 2.7 K 0 % 0 % 0 % 181 m²/s² 0 0 2.6 2
21:00 0 J/kg 2.9 K 0 % 0 % 0 % 208 m²/s² 390 346 2.75 3
22:00 0 J/kg 2.2 K 0 % 0 % 0 % 219 m²/s² 0 0 1.72 80
23:00 0 J/kg 2.2 K 0 % 0 % 0 % 227 m²/s² 0 0 1.9 80
 05:36     22:03    Daglengte: 16:27 Morgen
00:00 0 J/kg 0.8 K 0 % 0 % 0 % 230 m²/s² 0 0 0.04 80
01:00 0 J/kg 0.5 K 0 % 0 % 0 % 230 m²/s² 439 439 -0.35 80
02:00 0 J/kg 0.3 K 0 % 0 % 0 % 184 m²/s² 479 416 0.13 3
03:00 0 J/kg -0.8 K 0 % 0 % 0 % 174 m²/s² 471 268 -1.46 3
04:00 91 J/kg -1.9 K 0 % 0 % 0 % 138 m²/s² 551 268 -2.18 3
05:00 351 J/kg -3.1 K 0 % 0 % 0 % 129 m²/s² 408 268 -3.47 3
06:00 554 J/kg -4.1 K 0 % 0 % 0 % 106 m²/s² 550 277 -4.2 3
07:00 475 J/kg -3.3 K 0 % 0 % 0 % 70 m²/s² 868 284 -4.21 3
08:00 405 J/kg -3.0 K 0 % 0 % 0 % 68 m²/s² 472 267 -3 3
09:00 388 J/kg -3.0 K 0 % 0 % 0 % 46 m²/s² 613 242 -3.16 3
10:00 278 J/kg -2.3 K 0 % 0 % 0 % 13 m²/s² 707 234 -2.88 3
11:00 105 J/kg -0.9 K 0 % 0 % 0 % 90 m²/s² 885 204 -4.05 3
12:00 45 J/kg 0.4 K 0 % 0 % 0 % 90 m²/s² 540 234 -2.26 60
13:00 44 J/kg 0.2 K 0 % 0 % 0 % 113 m²/s² 812 490 -1.8 60
14:00 36 J/kg 1.1 K 0 % 0 % 0 % 64 m²/s² 767 622 -0.36 3
15:00 308 J/kg -0.4 K 6 % 4 % 4 % 134 m²/s² 964 272 -1.88 3
16:00 710 J/kg -1.6 K 14 % 10 % 15 % 129 m²/s² 963 962 -3.46 60
17:00 851 J/kg -2.5 K 18 % 11 % 19 % 119 m²/s² 946 832 -4.46 63
18:00 847 J/kg -2.7 K 21 % 12 % 19 % 115 m²/s² 945 923 -4.03 63
19:00 818 J/kg -2.9 K 19 % 10 % 16 % 105 m²/s² 962 923 -4.21 63
20:00 425 J/kg -2.7 K 12 % 5 % 7 % 97 m²/s² 961 516 -3.82 63
21:00 425 J/kg -2.8 K 6 % 2 % 2 % 63 m²/s² 899 367 -3.33 81
22:00 366 J/kg -2.3 K 6 % 1 % 1 % 53 m²/s² 774 640 -2.51 80
23:00 174 J/kg -1.4 K 3 % 1 % 1 % 63 m²/s² 473 275 -1.74 81
 05:37     22:03    Daglengte: 16:26 Woensdag 28 Jun
00:00 180 J/kg -2.1 K 0 % 0 % 0 % 32 m²/s² 965 946 -1.91 3
01:00 81 J/kg -1.9 K 0 % 0 % 0 % 12 m²/s² 974 940 -1.66 3
02:00 43 J/kg -0.7 K 0 % 0 % 0 % 3 m²/s² 963 429 -0.47 3
03:00 64 J/kg -1.0 K 0 % 0 % 0 % 7 m²/s² 973 292 -1.1 45
04:00 59 J/kg -1.5 K 0 % 0 % 0 % 25 m²/s² 972 292 -1.74 45
05:00 46 J/kg -0.6 K 0 % 0 % 0 % 12 m²/s² 972 301 -1.83 45
06:00 0 J/kg 0.6 K 0 % 0 % 0 % 23 m²/s² 978 765 -0.71 3
07:00 0 J/kg 0.4 K 0 % 0 % 0 % 23 m²/s² 972 352 -1.65 3
08:00 5 J/kg 0.4 K 0 % 0 % 0 % 37 m²/s² 972 385 -2.01 3
09:00 4 J/kg 0.4 K 0 % 0 % 0 % 35 m²/s² 972 495 -1.58 3
10:00 30 J/kg 0.3 K 0 % 0 % 0 % 26 m²/s² 958 379 -1.19 3
11:00 20 J/kg 0.4 K 0 % 0 % 0 % 18 m²/s² 964 329 -0.74 3
12:00 25 J/kg 0.5 K 0 % 0 % 0 % 4 m²/s² 958 341 -0.35 3
13:00 152 J/kg -0.3 K 1 % 0 % 0 % 3 m²/s² 944 739 -0.9 3
14:00 287 J/kg -0.9 K 1 % 0 % 0 % 32 m²/s² 941 818 -1.7 2
15:00 299 J/kg -1.0 K 2 % 0 % 0 % 34 m²/s² 939 873 -1.49 1
16:00 289 J/kg -0.6 K 1 % 0 % 0 % 36 m²/s² 941 873 -1.08 2
17:00 250 J/kg -0.6 K 2 % 0 % 1 % 60 m²/s² 929 819 -1.27 80
18:00 305 J/kg -0.5 K 2 % 0 % 0 % 39 m²/s² 891 891 -0.12 80
19:00 283 J/kg -0.3 K 4 % 1 % 1 % 58 m²/s² 931 931 -0.52 3
20:00 48 J/kg 1.2 K 1 % 0 % 0 % 44 m²/s² 950 921 0.52 3
21:00 35 J/kg 1.5 K 1 % 0 % 0 % 47 m²/s² 925 886 0.14 3
22:00 2 J/kg 1.2 K 0 % 0 % 0 % 52 m²/s² 903 858 0.21 3
23:00 20 J/kg 1.4 K 0 % 0 % 0 % 42 m²/s² 927 858 0.74 3
 05:37     22:03    Daglengte: 16:26 Donderdag 29 Jun
00:00 5 J/kg 2.4 K 0 % 0 % 0 % 28 m²/s² 919 478 2.27 3
01:00 0 J/kg 3.4 K 0 % 0 % 0 % 17 m²/s² 903 644 3.41 3
02:00 0 J/kg 3.3 K 0 % 0 % 0 % 7 m²/s² 881 331 2.81 3
03:00 5 J/kg 3.6 K 0 % 0 % 0 % 17 m²/s² 957 614 2.59 3
04:00 5 J/kg 3.8 K 0 % 0 % 0 % 4 m²/s² 956 773 2.31 3
05:00 5 J/kg 3.6 K 0 % 0 % 0 % 3 m²/s² 956 752 1.88 3
06:00 5 J/kg 3.3 K 0 % 0 % 0 % 10 m²/s² 957 307 1.71 3
07:00 5 J/kg 3.7 K 0 % 0 % 0 % 14 m²/s² 956 301 2.63 3
08:00 0 J/kg 4.3 K 0 % 0 % 0 % 9 m²/s² 956 433 3.15 3
Temp Baro Wind Neerslag
  EWN Forecast EWN WRFDA DWD ICON FMI HIRLAM MET Norway GFS
 05:36     22:03    Daglengte: 16:27 Vandaag
11:00 19.2° 1014.6 hPa 2.6 m/s 0.0 mm 19.8° 1016.6 hPa 2.7 m/s 0.0 mm 19.4° 1014.9 hPa 2.6 m/s -2.0 mm 19.2° 1014.1 hPa 2.3 m/s 0.0 mm 17.3° 1014.9 hPa 2.0 m/s
14:00 21.6° 1014.6 hPa 2.4 m/s 0.0 mm 22.0° 1016.3 hPa 3.7 m/s 0.0 mm 21.6° 1014.6 hPa 2.5 m/s 0.0 mm 21.7° 1014.4 hPa 2.3 m/s 0.0 mm 22.5° 1014.4 hPa 1.7 m/s
17:00 22.2° 1013.3 hPa 3.6 m/s 0.0 mm 21.5° 1015.9 hPa 5.6 m/s 0.0 mm 21.7° 1013.4 hPa 3.9 m/s 0.0 mm 23.1° 1012.9 hPa 3.3 m/s 0.0 mm 23.6° 1013.8 hPa 1.7 m/s
20:00 20.0° 1012.7 hPa 4.5 m/s 0.0 mm 19.3° 1014.1 hPa 5.9 m/s 0.0 mm 19.0° 1013.0 hPa 4.4 m/s 0.0 mm 21.3° 1012.4 hPa 4.0 m/s 0.0 mm 20.8° 1013.1 hPa 3.5 m/s
23:00 16.6° 1013.0 hPa 4.3 m/s 0.0 mm 14.8° 1013.5 hPa 5.1 m/s 0.0 mm 15.5° 1013.1 hPa 4.0 m/s 0.8 mm 17.0° 1013.0 hPa 4.2 m/s 0.0 mm 14.7° 1013.4 hPa 3.7 m/s
 05:36     22:03    Daglengte: 16:27 Morgen
02:00 14.9° 1011.8 hPa 3.8 m/s 0.0 mm 15.1° 1012.4 hPa 5.1 m/s 0.0 mm 14.5° 1011.6 hPa 3.5 m/s 0.6 mm 14.9° 1011.9 hPa 3.6 m/s 0.0 mm 13.1° 1012.5 hPa 3.3 m/s
05:00 14.6° 1010.0 hPa 3.6 m/s 0.0 mm 14.9° 1010.8 hPa 5.5 m/s 0.0 mm 14.4° 1009.9 hPa 3.3 m/s 0.0 mm 14.4° 1009.8 hPa 3.4 m/s 0.0 mm 13.2° 1010.9 hPa 3.2 m/s
08:00 15.3° 1008.8 hPa 3.7 m/s 0.0 mm 15.9° 1009.7 hPa 5.6 m/s 0.0 mm 15.2° 1008.7 hPa 2.8 m/s 0.0 mm 15.2° 1008.9 hPa 3.9 m/s 0.0 mm 16.5° 1009.2 hPa 4.5 m/s
11:00 17.3° 1007.9 hPa 3.5 m/s 0.0 mm 17.6° 1008.7 hPa 3.6 m/s 0.5 mm 17.5° 1007.9 hPa 2.4 m/s 0.0 mm 15.5° 1007.4 hPa 4.1 m/s 0.0 mm 21.3° 1007.4 hPa 5.0 m/s
14:00 18.3° 1006.1 hPa 3.7 m/s 0.0 mm 18.5° 1007.0 hPa 2.3 m/s 16.8 mm 18.2° 1006.3 hPa 3.5 m/s 0.2 mm 18.0° 1004.0 hPa 6.7 m/s 0.0 mm 26.2° 1004.7 hPa 4.3 m/s
17:00 19.3° 1003.8 hPa 4.5 m/s 0.6 mm 22.0° 1005.4 hPa 4.4 m/s 0.0 mm 17.1° 1003.9 hPa 4.4 m/s 2.2 mm 22.3° 1001.1 hPa 6.0 m/s 0.0 mm 25.6° 1002.4 hPa 2.9 m/s
20:00 18.1° 1002.1 hPa 4.3 m/s 0.6 mm 20.1° 1003.6 hPa 4.6 m/s 0.0 mm 16.4° 1002.4 hPa 4.2 m/s 3.7 mm 21.5° 998.0 hPa 5.3 m/s 0.0 mm 23.2° 1000.5 hPa 1.7 m/s
23:00 17.0° 1000.7 hPa 3.1 m/s 0.0 mm 17.6° 1002.1 hPa 3.3 m/s 2.1 mm 16.6° 1001.1 hPa 2.7 m/s 1.5 mm 19.5° 996.0 hPa 5.4 m/s 0.0 mm 19.1° 999.8 hPa 2.6 m/s
 05:37     22:03    Daglengte: 16:26 Woensdag 28 Jun
02:00 16.8° 999.5 hPa 2.5 m/s 0.0 mm 16.5° 1001.3 hPa 3.7 m/s 0.0 mm 16.4° 999.9 hPa 0.6 m/s 0.1 mm 19.1° 995.7 hPa 5.3 m/s 0.0 mm 17.6° 998.6 hPa 2.6 m/s
05:00 16.1° 998.1 hPa 2.1 m/s 0.0 mm 15.6° 1000.3 hPa 4.6 m/s 0.0 mm 16.1° 998.0 hPa 1.7 m/s 0.0 mm 16.3° 997.6 hPa 2.6 m/s
08:00 16.4° 997.4 hPa 4.7 m/s 0.0 mm 15.8° 1000.1 hPa 6.0 m/s 0.0 mm 16.5° 997.3 hPa 3.3 m/s 0.0 mm 16.7° 997.7 hPa 3.9 m/s
11:00 17.8° 997.0 hPa 6.6 m/s 0.0 mm 17.1° 1000.2 hPa 6.9 m/s 0.0 mm 18.7° 996.7 hPa 4.2 m/s 0.0 mm 18.4° 998.2 hPa 4.6 m/s
14:00 19.5° 997.0 hPa 5.6 m/s 0.0 mm 18.6° 1000.2 hPa 5.6 m/s 0.0 mm 22.5° 995.8 hPa 5.6 m/s 0.0 mm 20.2° 998.3 hPa 5.5 m/s
17:00 19.9° 996.2 hPa 5.5 m/s 0.4 mm 19.0° 999.2 hPa 5.7 m/s 0.2 mm 21.8° 995.4 hPa 6.0 m/s 0.8 mm 21.2° 997.4 hPa 5.1 m/s
20:00 18.0° 996.1 hPa 4.4 m/s 0.7 mm 17.9° 997.9 hPa 4.2 m/s 0.2 mm 19.2° 994.9 hPa 5.0 m/s 0.6 mm 20.1° 996.7 hPa 4.2 m/s
23:00 16.0° 996.5 hPa 3.3 m/s 0.0 mm 15.5° 998.4 hPa 3.2 m/s 0.1 mm 16.7° 995.2 hPa 4.6 m/s 0.0 mm 15.1° 997.1 hPa 2.6 m/s
 05:37     22:03    Daglengte: 16:26 Donderdag 29 Jun
02:00 14.9° 995.9 hPa 2.7 m/s 0.0 mm 13.2° 997.2 hPa 2.1 m/s 0.1 mm 15.1° 995.2 hPa 4.1 m/s 0.0 mm 13.1° 997.0 hPa 2.8 m/s
05:00 14.2° 995.0 hPa 4.0 m/s 0.0 mm 13.2° 997.5 hPa 3.6 m/s 0.0 mm 14.4° 994.4 hPa 4.1 m/s 0.0 mm 12.3° 996.8 hPa 2.6 m/s
08:00 15.0° 995.5 hPa 4.6 m/s 0.0 mm 13.1° 997.3 hPa 4.8 m/s 0.0 mm 15.4° 995.0 hPa 4.5 m/s 0.0 mm 14.3° 997.4 hPa 3.3 m/s
11:00 17.4° 998.6 hPa 4.5 m/s 0.0 mm 17.4° 998.6 hPa 4.5 m/s 0.0 mm
14:00 17.6° 999.2 hPa 4.6 m/s 0.4 mm 17.6° 999.2 hPa 4.6 m/s 0.4 mm
17:00 19.4° 999.0 hPa 5.7 m/s 0.3 mm 19.4° 999.0 hPa 5.7 m/s 0.3 mm
20:00 19.1° 999.7 hPa 4.7 m/s 0.5 mm 19.1° 999.7 hPa 4.7 m/s 0.5 mm
23:00 13.7° 1001.4 hPa 3.2 m/s 0.1 mm 13.7° 1001.4 hPa 3.2 m/s 0.1 mm
 05:38     22:03    Daglengte: 16:25 Vrijdag 30 Jun
02:00 11.9° 1002.0 hPa 3.3 m/s 0.1 mm 11.9° 1002.0 hPa 3.3 m/s 0.1 mm
05:00 11.8° 1002.8 hPa 4.0 m/s 0.0 mm 11.8° 1002.8 hPa 4.0 m/s 0.0 mm
08:00 14.1° 1003.8 hPa 5.4 m/s 0.0 mm 14.1° 1003.8 hPa 5.4 m/s 0.0 mm
11:00 17.3° 1005.1 hPa 6.8 m/s 0.1 mm 17.3° 1005.1 hPa 6.8 m/s 0.1 mm
14:00 20.0° 1005.5 hPa 6.4 m/s 0.7 mm 20.0° 1005.5 hPa 6.4 m/s 0.7 mm
17:00 19.6° 1005.8 hPa 5.7 m/s 0.7 mm 19.6° 1005.8 hPa 5.7 m/s 0.7 mm
20:00 18.3° 1006.2 hPa 3.8 m/s 1.7 mm 18.3° 1006.2 hPa 3.8 m/s 1.7 mm
23:00 14.1° 1007.9 hPa 2.8 m/s 0.0 mm 14.1° 1007.9 hPa 2.8 m/s 0.1 mm
 05:39     22:02    Daglengte: 16:23 Zaterdag 01 Jul
02:00 12.3° 1008.6 hPa 2.5 m/s 0.0 mm 12.3° 1008.6 hPa 2.5 m/s 0.1 mm
05:00 11.4° 1009.4 hPa 2.7 m/s 0.0 mm 11.4° 1009.4 hPa 2.7 m/s 0.0 mm
08:00 15.1° 1010.9 hPa 3.4 m/s 0.1 mm 15.1° 1010.9 hPa 3.4 m/s 0.1 mm
11:00 14.9° 1012.8 hPa 3.7 m/s 0.4 mm 14.9° 1012.8 hPa 3.7 m/s 0.4 mm
14:00 15.5° 1014.3 hPa 3.8 m/s 0.7 mm 15.5° 1014.3 hPa 3.8 m/s 0.7 mm
17:00 16.1° 1015.5 hPa 3.6 m/s 0.2 mm 16.1° 1015.5 hPa 3.6 m/s 0.2 mm
20:00 17.5° 1016.0 hPa 2.8 m/s 0.4 mm 17.5° 1016.0 hPa 2.8 m/s 0.4 mm
23:00 14.8° 1017.2 hPa 4.7 m/s 0.0 mm 14.8° 1017.2 hPa 4.7 m/s 0.0 mm
 05:39     22:02    Daglengte: 16:23 Zondag 02 Jul
02:00 12.4° 1016.6 hPa 4.9 m/s 0.0 mm 12.4° 1016.6 hPa 4.9 m/s 0.0 mm
05:00 13.4° 1014.9 hPa 5.8 m/s 0.0 mm 13.4° 1014.9 hPa 5.8 m/s 0.0 mm
08:00 14.0° 1013.4 hPa 7.3 m/s 0.5 mm 14.0° 1013.4 hPa 7.3 m/s 0.5 mm
11:00 15.8° 1013.1 hPa 6.6 m/s 2.5 mm 15.8° 1013.1 hPa 6.6 m/s 2.5 mm
14:00 18.6° 1012.5 hPa 8.4 m/s 2.9 mm 18.6° 1012.5 hPa 8.4 m/s 2.9 mm
17:00 20.4° 1012.5 hPa 8.4 m/s 0.8 mm 20.4° 1012.5 hPa 8.4 m/s 0.8 mm
20:00 17.2° 1014.6 hPa 6.5 m/s 1.8 mm 17.2° 1014.6 hPa 6.5 m/s 1.8 mm
23:00 14.8° 1018.1 hPa 3.0 m/s 0.0 mm 14.8° 1018.1 hPa 3.0 m/s 0.0 mm
 05:40     22:02    Daglengte: 16:22 Maandag 03 Jul
02:00 13.8° 1019.6 hPa 3.2 m/s 0.0 mm 13.8° 1019.6 hPa 3.2 m/s 0.0 mm
05:00 11.1° 1020.6 hPa 2.8 m/s 0.0 mm 11.1° 1020.6 hPa 2.8 m/s 0.0 mm
08:00 14.6° 1022.3 hPa 3.1 m/s 0.0 mm 14.6° 1022.3 hPa 3.1 m/s 0.0 mm
14:00 19.3° 1023.2 hPa 2.4 m/s 0.3 mm 19.3° 1023.2 hPa 2.4 m/s 0.3 mm
20:00 19.5° 1022.8 hPa 2.3 m/s 0.2 mm 19.5° 1022.8 hPa 2.3 m/s 0.2 mm
 05:41     22:01    Daglengte: 16:20 Dinsdag 04 Jul
02:00 10.7° 1022.6 hPa 2.0 m/s 0.0 mm 10.7° 1022.6 hPa 2.0 m/s 0.0 mm
08:00 15.1° 1021.4 hPa 2.2 m/s 0.0 mm 15.1° 1021.4 hPa 2.2 m/s 0.0 mm
14:00 23.0° 1019.9 hPa 3.0 m/s 0.0 mm 23.0° 1019.9 hPa 3.0 m/s 0.0 mm
20:00 22.0° 1018.6 hPa 1.5 m/s 0.0 mm 22.0° 1018.6 hPa 1.5 m/s 0.0 mm
 05:42     22:01    Daglengte: 16:19 Woensdag 05 Jul
02:00 12.9° 1018.7 hPa 1.3 m/s 0.0 mm 12.9° 1018.7 hPa 1.3 m/s 0.0 mm
08:00 16.5° 1018.5 hPa 1.7 m/s 0.0 mm 16.5° 1018.5 hPa 1.7 m/s 0.0 mm
14:00 25.1° 1017.0 hPa 3.6 m/s 0.2 mm 25.1° 1017.0 hPa 3.6 m/s 0.2 mm
20:00 22.8° 1015.1 hPa 0.6 m/s 0.4 mm
 05:43     22:00    Daglengte: 16:17 Donderdag 06 Jul
02:00 15.7° 1015.0 hPa 1.3 m/s 0.8 mm
08:00 16.6° 1014.8 hPa 1.7 m/s 0.7 mm
14:00 23.4° 1015.0 hPa 3.2 m/s 0.3 mm
20:00 21.6° 1014.7 hPa 2.3 m/s 0.3 mm
 05:44     22:00    Daglengte: 16:16 Vrijdag 07 Jul
02:00 15.2° 1015.6 hPa 1.2 m/s 0.5 mm
08:00 16.0° 1015.2 hPa 2.3 m/s 0.3 mm
14:00 22.5° 1015.2 hPa 3.1 m/s 1.0 mm
20:00 22.0° 1014.7 hPa 2.7 m/s 1.3 mm
 05:44     21:59    Daglengte: 16:15 Zaterdag 08 Jul
02:00 15.4° 1015.2 hPa 2.3 m/s 0.5 mm
08:00 16.3° 1014.9 hPa 3.3 m/s 0.2 mm
14:00 21.7° 1014.6 hPa 4.4 m/s 1.0 mm
20:00 20.6° 1014.2 hPa 4.0 m/s 1.1 mm
 05:45     21:58    Daglengte: 16:13 Zondag 09 Jul
02:00 14.1° 1015.0 hPa 2.9 m/s 0.9 mm
08:00 15.5° 1015.6 hPa 3.8 m/s 0.2 mm
14:00 20.7° 1016.1 hPa 5.0 m/s 0.5 mm
20:00 19.8° 1016.3 hPa 3.6 m/s 0.7 mm
 05:46     21:57    Daglengte: 16:11 Maandag 10 Jul
02:00 13.7° 1017.9 hPa 1.5 m/s 0.3 mm
08:00 15.2° 1018.2 hPa 1.9 m/s 0.6 mm
14:00 21.2° 1018.4 hPa 3.0 m/s 0.6 mm
20:00 20.7° 1018.0 hPa 2.5 m/s 0.6 mm
 05:47     21:57    Daglengte: 16:10 Dinsdag 11 Jul
02:00 14.2° 1018.4 hPa 0.4 m/s 1.0 mm
08:00 15.4° 1017.7 hPa 0.6 m/s 0.4 mm
FMI Hirlam - 7.5 km EWN WRFDA - 12 km DWD ICON - 12.5 km GFS - 25 km Basiskaart






























































Updatetijd (Europe/Brussels) Resolutie Lengte Stap
FMI Hirlam 07:00, 13:00, 19:00, 01:00 7.5 km 49h 1h
EWN WRFDA 04:00, 10:00, 16:00, 22:00 12 km 73h 1h
DWD ICON 06:30, 12:30, 18:30, 00:30 12.5 km 75h 1h
GFS 03:30, 09:30, 15:30, 21:30 25 km 237h 3h
30+ mm
25-30 mm
20-25 mm
15-20 mm
10-15 mm
6-10 mm
4-6 mm
2-4 mm
1-2 mm
0.5-1 mm
0.2-0.5 mm
0.1-0.2 mm
30+ mm
25-30 mm
20-25 mm
15-20 mm
10-15 mm
6-10 mm
4-6 mm
2-4 mm
1-2 mm
0.5-1 mm
0.2-0.5 mm
0.1-0.2 mm
Sneeuwval
Natte sneeuw
Hagel
Vorst
30+ mm
25-30 mm
20-25 mm
15-20 mm
10-15 mm
6-10 mm
4-6 mm
2-4 mm
1-2 mm
0.5-1 mm
0.2-0.5 mm
0.1-0.2 mm
Sneeuwval
Natte sneeuw
Hagel
Vorst
Onweer
50 mm
40 mm
30 mm
26 mm
22 mm
18 mm
14 mm
10 mm
9 mm
8 mm
7 mm
6 mm
5 mm
4.5 mm
4 mm
3.5 mm
3 mm
2.5 mm
2 mm
1.5 mm
1 mm
0.8 mm
0.6 mm
0.4 mm
0.2 mm
0.05 mm
35°
30°
25°
20°
15°
10°
-5°
-10°
-15°
-20°
-25°
-30°
-35°
33> m/s
29 m/s
25 m/s
21 m/s
17 m/s
14 m/s
11 m/s
8 m/s
5 m/s
3 m/s
0 m/s
2600 J/kg
2400 J/kg
2200 J/kg
2000 J/kg
1800 J/kg
1600 J/kg
1400 J/kg
1200 J/kg
1000 J/kg
800 J/kg
600 J/kg
400 J/kg
200 J/kg
70 dBZ
65 dBZ
60 dBZ
55 dBZ
50 dBZ
45 dBZ
40 dBZ
35 dBZ
30 dBZ
25 dBZ
20 dBZ
15 dBZ
10 dBZ
5 dBZ
-1 K
-2 K
-3 K
-4 K
-5 K
-6 K
-7 K
-8 K
-9 K
950 m²/s²
900 m²/s²
850 m²/s²
800 m²/s²
750 m²/s²
700 m²/s²
650 m²/s²
600 m²/s²
550 m²/s²
500 m²/s²
450 m²/s²
400 m²/s²
350 m²/s²
300 m²/s²
250 m²/s²
200 m²/s²
150 m²/s²
100 m²/s²
46 m/s
44 m/s
42 m/s
40 m/s
38 m/s
36 m/s
34 m/s
32 m/s
30 m/s
28 m/s
26 m/s
24 m/s
22 m/s
20 m/s
16 m/s
12 m/s
8 m/s
4 m/s
30 m/s
28 m/s
26 m/s
24 m/s
22 m/s
20 m/s
18 m/s
16 m/s
14 m/s
12 m/s
10 m/s
8 m/s
6 m/s
4 m/s
2 m/s
3.0
2.8
2.6
2.4
2.2
2.0
1.8
1.6
1.4
1.2
1.0
0.8
0.6
0.4
0.2
15
14
13
12
11
10
9
8
7
6
5
4
3
2
1
90%
80%
70%
60%
50%
40%
30%
20%
10%
42
40
38
36
34
32
30
28
26
24
22
20
18
16
14
12
90+ cm
80-90 cm
70-80 cm
60-70 cm
50-60 cm
40-50 cm
30-40 cm
20-30 cm
10-20 cm
1-10 cm
Sneeuwval
Natte sneeuw
Regen
>120 mm
115 mm
110 mm
105 mm
100 mm
95 mm
90 mm
85 mm
80 mm
75 mm
70 mm
65 mm
60 mm
55 mm
50 mm
45 mm
45 mm
40 mm
35 mm
30 mm
25 mm
20 mm
15 mm
10 mm
5 mm
0.1 mm
960 hPa
880 hPa
800 hPa
720 hPa
640 hPa
560 hPa
584 gpdm
568 gpdm
552 gpdm
536 gpdm
520 gpdm
504 gpdm
488 gpdm
Extreem zwaar Noodweer Kans op onweer
15% 15% 5% 50% 15%

Dag




Kaart






35°
30°
25°
20°
15°
10°
-5°
-10°
-15°
-20°
-25°
-30°
-35°
33> m/s
29 m/s
25 m/s
21 m/s
17 m/s
14 m/s
11 m/s
8 m/s
5 m/s
3 m/s
0 m/s
Extreem zwaar Noodweer Kans op onweer
15% 15% 5% 50% 15%
>120 mm
115 mm
110 mm
105 mm
100 mm
95 mm
90 mm
85 mm
80 mm
75 mm
70 mm
65 mm
60 mm
55 mm
50 mm
45 mm
45 mm
40 mm
35 mm
30 mm
25 mm
20 mm
15 mm
10 mm
5 mm
0.1 mm
Onweer risico kaarten - De groene en gele kleur geeft de kans op onweer aan binnen 40 km van een punt. Oranje, rood en violet hebben hetzelfde niveau zoals je het ziet op estofex.org waaronder ook de kans op hagel en supercells.

dBZ - dBZ staat voor decibel ten opzichte van Z.

Cape - Convective available potential energy (CAPE), is de totale hoeveelheid energie die een luchtpakketje nodig heeft om zover mogelijk te stijgen in de atmosfeer.

K Index - K-Index wordt berekend door de Vertical Totals (VT) en het verschil tussen de 850 hPa temperatuur en de 700 hPa dauwpuntsdepressie (Tdd 700) bij elkaar op te tellen.

TT Index - Convectie index wordt gebruikt voor het voorspellen van zware buien of onweer.

WRF - The Weather Research and Forecasting (WRF) is een volgende generatie mesoscale numeriek weersvoorspelling systeem ontworpen om zowel de operationele planning als het atmosferisch onderzoek te dienen. WRF is a cooperatie tussen het National Center for Atmospheric Research (NCAR), National Centers for Environmental Prediction (NCEP), Forecast Systems Laboratory (FSL), Air Force Weather Agency (AFWA), Naval Research Laboratory, University of Oklahoma, en de Federal Aviation Administration (FAA). Deze software draait op onze server.

WRFDA - Een meer geavanceerde versie van WRF

Arome - Het 2.5 km Arome model. Verzorgd door het Noors Meteorologisch Instituut.

MET Norway - De proff-default 4km meteorological data is een beste keus selectie van meteorologische modellen gebruikt door met.no die zijn geïnterpoleerd tot een gemeenschappelijke dataset. Verzorgd door het Noorse Meteorologisch Instituut.

SMHI - Het Hirlam model verzorgd door het Zweeds meteorologisch instituut.

FMI - Het Hirlam model verzorgd door het Fins meteorologisch instituut. Dekking alleen Finland.

GFS - Het Global Forecast Systeem (GFS) is een wereldwijd numerieke weersvoorspelling computermodel, gerund door NOAA.

GEM-GDPS - Het GEM-GDPS is a wereldwijd numeriek weersvoorspelling computermodel verzorgd door het Canadees Meteorologisch Centrum.

Credits/Info: Dank aan Stefan Gofferje van sääkeskus.fi voor enkele formules van GrADS. Info: Wikipedia.

Betrouwbaarheid van de verwachting

NB! 2015-03-29: Rebuilding the accuracy-test!

EWNACC
Day 1 Good forecasts

Dag 1 Tmax

Dag 2 Tmax

Geladen verwachtingen TOP 50

Totaal geladen verwachtingen:
Plaats Latitude Longitude Verwachtingen Plaats Latitude Longitude Verwachtingen